Location: Kile Knob Observatory
(38.6083°N, 79.4792°W)
Time: 12:33:52
(UTC-04:00)

Tiangong 2 - Pass Details

Date: 30 May 2019
Orbit: 376 x 389 km, 42.8° (Epoch: 17 June)

Event Time Altitude Azimuth Distance (km) Brightness Sun altitude
Rises 22:46:03 0° 281° (W) 2,233 5.7 -20.1°
Reaches altitude 10° 22:48:29 10° 263° (W) 1,377 4.2 -20.4°
Enters shadow 22:49:41 16° 243° (WSW) 1,073 3.4 -20.5°
